[[{"header":{"parameterUnit":"m.s-1","parameterCategory":1,"la1":30.2991,"la2":30.254,"lo1":-89.0895,"lo2":-89.0444,"dy":0.0017,"dx":0.0017,"nx":28,"ny":28,"refTime":"2025-05-18T03:00:00:Z","depth":0,"parameterNumber":2,"parameterNumberName":"U-component_of_WINDS"},"data":[0,0,0,0,0,0,0,0,0,0,0,0,0,0,0,0,0,0,0,0,0,0,0,0,0,0,0,0,0,0,0,0,0,0,0,0,0,0,0,0,0,0,0,0,0,0,0,0,0,0,0,0,0,0,0,0,0,0,0.7629,0.763,0,0.7661,0.7662,0.7662,0.7656,0.7655,0.7655,0.7654,0.7684,0.7686,0.7687,0,0,0,0,0,0,0,0,0,0,0,0,0,0.7559,0.756,0.7629,0.763,0.763,0.7661,0.7662,0.7662,0.7656,0.7655,0.7655,0.7654,0.7684,0.7686,0.7687,0,0,0,0,0,0,0,0,0,0,0,0,0,0.759,0.7561,0.7629,0.7631,0.7631,0.7661,0.7662,0.7662,0.7656,0.7655,0.7655,0.7654,0.7683,0.7685,0.7687,0.7717,0,0,0.7693,0.7694,0,0,0,0,0,0,0,0,0.7588,0.7593,0.763,0.7631,0.7631,0.7654,0.7648,0.7681,0.7656,0.7647,0.7654,0.7653,0.7675,0.7677,0.7685,0.7718,0.772,0.7694,0.7695,0.7696,0.7696,0,0,0,0,0,0,0,0.7586,0.7591,0.7642,0.7631,0.7631,0.7629,0.7632,0.7654,0.7665,0.7647,0.7647,0.7651,0.7675,0.7683,0.7686,0.772,0.7694,0.7695,0.7697,0.7697,0.7777,0.7778,0,0,0,0,0,0,0.7584,0.7589,0.7641,0.7643,0.7607,0.7631,0.7635,0.7647,0.7665,0.7667,0.7652,0.7651,0.768,0.7684,0.7687,0.7722,0.7696,0.7698,0.7699,0.7776,0.7777,0.7778,0,0,0,0,0,0,0.7582,0.7589,0.764,0.7616,0.7622,0.7633,0.7647,0.7649,0.7657,0.7668,0.767,0.7659,0.768,0.7684,0.7709,0.7723,0.7699,0.77,0.7775,0.7777,0.7778,0.7792,0,0,0,0,0,0,0.758,0.7588,0.76,0.7616,0.7624,0.7663,0.7648,0.765,0.7661,0.766,0.7675,0.7677,0.7679,0.7706,0.7711,0.7725,0.7702,0.7774,0.7776,0.7777,0.779,0.7793,0.7796,0,0,0,0,0,0.7578,0.7603,0.7601,0.7607,0.7639,0.7663,0.7667,0.7671,0.7662,0.7674,0.7681,0.7676,0.772,0.7709,0.7714,0.7729,0.7773,0.7775,0.7777,0.7789,0.7793,0.7796,0,0,0,0,0,0,0.7587,0.7605,0.7603,0.7634,0.7647,0.7662,0.7677,0.7675,0.7691,0.7689,0.7691,0.7695,0.772,0.7727,0.7714,0.7757,0.7745,0.7749,0.7752,0.7756,0.7759,0.7757,0.7704,0,0,0,0,0,0.7593,0.7612,0.7626,0.7652,0.7658,0.7667,0.7677,0.7679,0.7692,0.7698,0.7706,0.7719,0.7735,0.7746,0.7762,0.7791,0.7794,0.7804,0.7807,0.7809,0.7812,0.7826,0.783,0.7785,0.7785,0.7785,0,0,0.7604,0.7617,0.7628,0.7654,0.7664,0.7683,0.7671,0.7692,0.7705,0.77,0.7725,0.7732,0.7745,0.7772,0.7785,0.7779,0.7825,0.7812,0.7814,0.7815,0.7829,0.7833,0.7837,0.7786,0.7786,0.7786,0,0,0.7635,0.7647,0.7669,0.768,0.7696,0.7701,0.7706,0.7722,0.7726,0.7751,0.7747,0.7763,0.7791,0.7801,0.781,0.7843,0.7839,0.7848,0.7864,0.7878,0.7882,0.7885,0.7895,0.7899,0.7851,0.7851,0.7851,0,0.7647,0.7676,0.768,0.7701,0.7711,0.7709,0.7731,0.774,0.7761,0.7767,0.7761,0.7796,0.7805,0.7834,0.7842,0.785,0.7855,0.7846,0.7881,0.7884,0.7887,0.7897,0.7902,0.7852,0.7852,0.7852,0.7851,0,0.769,0.771,0.7725,0.7746,0.7758,0.7779,0.7785,0.7797,0.7797,0.7803,0.7827,0.7838,0.7855,0.7862,0.7863,0.7891,0.7886,0.788,0.7868,0.7892,0.7902,0.7906,0.7853,0.7853,0.7852,0.7852,0,0,0.7727,0.7749,0.7755,0.7763,0.7781,0.7795,0.7816,0.7834,0.7843,0.7857,0.7873,0.7897,0.7891,0.7901,0.7902,0.7915,0.7939,0.7907,0.7907,0.7912,0.7969,0.7973,0.7978,0.7937,0.7938,0.7938,0.7968,0,0.7759,0.7795,0.7799,0.7831,0.7849,0.7846,0.7864,0.7875,0.7881,0.7895,0.7901,0.7918,0.7909,0.7915,0.7928,0.7934,0.795,0.7932,0.795,0.7951,0.7946,0.7983,0.7987,0.8014,0.7971,0.7972,0.7973,0,0.78,0.7816,0.785,0.7864,0.7871,0.7887,0.7903,0.7918,0.793,0.7933,0.7944,0.7943,0.7963,0.795,0.7976,0.7963,0.7971,0.7975,0.7976,0.7977,0.7963,0.7984,0.8023,0.8027,0.7979,0.7978,0.7978,0,0.7823,0.7852,0.7876,0.7884,0.7901,0.7912,0.7919,0.7931,0.7941,0.7955,0.7961,0.7977,0.7985,0.7997,0.8,0.799,0.8025,0.8013,0.8027,0.8027,0.8034,0.8033,0.8074,0.804,0.804,0.804,0.804,0,0.7857,0.7878,0.7886,0.7901,0.7923,0.7927,0.7949,0.7956,0.7966,0.7981,0.798,0.7993,0.7997,0.8011,0.8013,0.8034,0.8038,0.804,0.804,0.8039,0.8039,0.8044,0.8042,0.8041,0.8041,0.8041,0.8041,0,0.7886,0.7893,0.7918,0.7932,0.7936,0.7952,0.7964,0.7977,0.7982,0.8001,0.8005,0.8013,0.8029,0.8034,0.8053,0.8055,0.8078,0.8077,0.8074,0.8074,0.8087,0.8086,0.8132,0.8138,0.8101,0.8102,0.8102,0,0.7907,0.7923,0.7939,0.7949,0.7957,0.7974,0.7984,0.7988,0.7998,0.8014,0.8025,0.8041,0.8054,0.808,0.8087,0.8102,0.81,0.8115,0.8102,0.8101,0.8099,0.8098,0.8099,0.8118,0.8118,0.8118,0.8119,0,0.7943,0.7946,0.7961,0.7978,0.799,0.8003,0.8016,0.8024,0.8029,0.8041,0.8058,0.8069,0.8089,0.8104,0.8119,0.8125,0.8122,0.8123,0.8127,0.8126,0.8123,0.8124,0.808,0.8121,0.8121,0.8121,0.8121,0.8121,0.7968,0.7981,0.7995,0.8012,0.8022,0.8033,0.8046,0.8053,0.8067,0.8084,0.8086,0.8104,0.8115,0.8134,0.8141,0.8155,0.815,0.8156,0.8157,0.8158,0.8159,0.8122,0.8158,0.8158,0.8157,0.8157,0.8157,0,0.8003,0.8011,0.8027,0.8045,0.8058,0.8055,0.8068,0.8079,0.8096,0.8107,0.812,0.8139,0.8154,0.8161,0.8176,0.8185,0.8184,0.8189,0.8188,0.8189,0.8163,0.8158,0.8189,0.8189,0.8189,0.8189,0.8189,0.8189,0.8023,0.8045,0.8049,0.8076,0.8084,0.8102,0.811,0.812,0.8129,0.815,0.8163,0.8168,0.8178,0.8193,0.8206,0.8208,0.8213,0.8218,0.8219,0.8194,0.8191,0.8188,0.8183,0.8219,0.8219,0.8244,0.8244,0.8244]},{"header":{"parameterUnit":"m.s-1","parameterCategory":1,"la1":30.2991,"la2":30.254,"lo1":-89.0895,"lo2":-89.0444,"dy":0.0017,"dx":0.0017,"nx":28,"ny":28,"refTime":"2025-05-18T03:00:00:Z","depth":0,"parameterNumber":3,"parameterNumberName":"V-component_of_WINDS"},"data":[0,0,0,0,0,0,0,0,0,0,0,0,0,0,0,0,0,0,0,0,0,0,0,0,0,0,0,0,0,0,0,0,0,0,0,0,0,0,0,0,0,0,0,0,0,0,0,0,0,0,0,0,0,0,0,0,0,0,4.8183,4.8183,0,4.8182,4.8182,4.8182,4.809,4.8087,4.8085,4.8083,4.8081,4.8084,4.8086,0,0,0,0,0,0,0,0,0,0,0,0,0,4.8104,4.8106,4.8183,4.8183,4.8183,4.8182,4.8182,4.8182,4.809,4.8087,4.8084,4.8082,4.8081,4.8083,4.8086,0,0,0,0,0,0,0,0,0,0,0,0,0,4.8124,4.8107,4.8183,4.8137,4.8133,4.8182,4.8182,4.8182,4.8091,4.8087,4.8083,4.808,4.808,4.8083,4.8086,4.8179,0,0,4.8096,4.8098,0,0,0,0,0,0,0,0,4.8123,4.8127,4.8144,4.814,4.8136,4.8132,4.8154,4.8181,4.8092,4.8107,4.8083,4.8078,4.8101,4.8103,4.811,4.8179,4.8179,4.8097,4.8099,4.81,4.8101,0,0,0,0,0,0,0,4.8122,4.8127,4.8183,4.8144,4.8139,4.8116,4.8115,4.8158,4.8124,4.8105,4.8098,4.81,4.8098,4.8107,4.811,4.8179,4.8097,4.81,4.8102,4.8103,4.8323,4.8326,0,0,0,0,0,0,4.8127,4.8126,4.8183,4.8183,4.8121,4.812,4.8119,4.8137,4.8124,4.8118,4.8103,4.8095,4.8103,4.8106,4.8109,4.8216,4.81,4.8103,4.8105,4.8319,4.8323,4.8328,0,0,0,0,0,0,4.8126,4.8133,4.8183,4.8153,4.8157,4.8126,4.8147,4.8139,4.8148,4.8122,4.8115,4.8118,4.8101,4.8105,4.8162,4.8215,4.8105,4.8108,4.8314,4.832,4.8325,4.8431,0,0,0,0,0,0,4.8124,4.8133,4.8169,4.8154,4.8159,4.8236,4.815,4.8142,4.8154,4.8144,4.8135,4.8129,4.8098,4.8158,4.8166,4.8217,4.811,4.8309,4.8317,4.8324,4.8423,4.844,4.8454,0,0,0,0,0,4.8121,4.8199,4.8171,4.8178,4.8203,4.824,4.8242,4.8205,4.8159,4.8193,4.8176,4.813,4.8208,4.8164,4.8172,4.8226,4.8306,4.8315,4.8323,4.8416,4.8437,4.8454,0,0,0,0,0,0,4.822,4.8196,4.8165,4.824,4.8243,4.8224,4.8267,4.8228,4.8244,4.8234,4.8187,4.8186,4.825,4.8244,4.8196,4.8314,4.8248,4.8259,4.8316,4.8336,4.8351,4.8351,4.8113,0,0,0,0,0,4.8251,4.8283,4.826,4.8328,4.8331,4.8299,4.8314,4.8284,4.8285,4.8286,4.8273,4.8276,4.83,4.8318,4.8339,4.8422,4.8418,4.8462,4.8478,4.8491,4.8501,4.8543,4.8562,4.8356,4.8356,4.8356,0,0,4.8315,4.8305,4.8328,4.8348,4.8347,4.838,4.8301,4.834,4.8364,4.8292,4.8345,4.8336,4.8335,4.8406,4.8436,4.8402,4.8557,4.8502,4.8513,4.8515,4.8553,4.8573,4.859,4.8362,4.8361,4.836,0,0,4.8447,4.8444,4.85,4.85,4.8498,4.8476,4.849,4.8477,4.8468,4.8521,4.8466,4.8495,4.8539,4.854,4.8547,4.8679,4.8636,4.8687,4.8769,4.8811,4.8827,4.8841,4.8887,4.8905,4.8697,4.8697,4.8697,0,4.8526,4.8575,4.8533,4.8576,4.8586,4.8521,4.8577,4.8579,4.8585,4.8593,4.8555,4.8608,4.8603,4.8672,4.8704,4.8712,4.8725,4.8688,4.8828,4.8842,4.8854,4.8898,4.8916,4.8703,4.8703,4.8702,4.8701,0,4.8672,4.8707,4.8752,4.8758,4.8773,4.8823,4.8787,4.8807,4.8777,4.8759,4.8812,4.8804,4.8822,4.8837,4.8808,4.8901,4.888,4.8836,4.8769,4.8881,4.8921,4.8937,4.8712,4.871,4.8708,4.8707,0,0,4.8867,4.8849,4.8867,4.8868,4.8862,4.8887,4.8933,4.895,4.8968,4.8974,4.9011,4.9049,4.9008,4.9015,4.8985,4.9022,4.9126,4.8973,4.8972,4.9001,4.9228,4.9261,4.9281,4.9098,4.9101,4.9103,4.9227,0,4.8995,4.9072,4.9035,4.9116,4.9147,4.9085,4.9125,4.9125,4.9109,4.9133,4.9115,4.9142,4.9086,4.909,4.9124,4.9106,4.9171,4.9097,4.9131,4.9132,4.9132,4.9302,4.9337,4.9455,4.9243,4.9246,4.9248,0,4.9154,4.9166,4.9251,4.9237,4.9248,4.9285,4.9297,4.932,4.9319,4.9304,4.9313,4.9274,4.9317,4.9251,4.9309,4.926,4.9271,4.9265,4.9269,4.927,4.9197,4.9307,4.9491,4.9509,4.9272,4.927,4.9268,0,4.9287,4.9325,4.9379,4.9383,4.9368,4.9395,4.939,4.9385,4.9397,4.9408,4.9415,4.9432,4.944,4.9454,4.942,4.9375,4.9483,4.9414,4.9472,4.9473,4.9497,4.9496,4.9685,4.9506,4.9506,4.9506,4.9505,0,4.9433,4.9487,4.9438,4.9472,4.953,4.9487,4.9545,4.9534,4.9529,4.9559,4.9508,4.9537,4.9491,4.9516,4.949,4.9542,4.9546,4.9536,4.9528,4.954,4.9541,4.9546,4.9537,4.951,4.9509,4.9508,4.9507,0,4.9592,4.9561,4.9617,4.9598,4.9595,4.9638,4.9622,4.9652,4.9632,4.9671,4.9677,4.9646,4.9672,4.964,4.9664,4.9646,4.9717,4.9697,4.9717,4.9712,4.9771,4.9766,4.997,4.9994,4.98,4.9802,4.9804,0,4.9686,4.9726,4.9711,4.9727,4.9725,4.9752,4.9764,4.9723,4.9738,4.9738,4.9768,4.979,4.9805,4.985,4.9829,4.9847,4.9827,4.9897,4.9829,4.984,4.9827,4.9825,4.9828,4.9911,4.9914,4.9915,4.9917,0,4.9858,4.984,4.9859,4.9874,4.9889,4.9899,4.9904,4.992,4.9877,4.9896,4.9922,4.9934,4.9957,4.9979,4.9991,4.9985,4.9944,4.9939,4.9953,4.9965,4.9975,4.9969,4.9755,4.9934,4.9932,4.9931,4.993,4.9929,4.9986,5.0018,5.0012,5.0035,5.0034,5.004,5.0067,5.005,5.0071,5.0087,5.0061,5.0093,5.009,5.0101,5.0101,5.0125,5.0095,5.0116,5.0121,5.0126,5.0135,4.9971,5.0127,5.0127,5.0126,5.0126,5.0125,0,5.0154,5.0147,5.0168,5.0177,5.0195,5.0154,5.0157,5.0175,5.0204,5.0203,5.0219,5.0248,5.0269,5.025,5.0267,5.0291,5.0272,5.0296,5.0294,5.0293,5.0161,5.0147,5.0311,5.0311,5.0311,5.0311,5.0311,5.0311,5.0243,5.0294,5.0276,5.0326,5.0319,5.0349,5.0355,5.036,5.0359,5.0394,5.0411,5.0398,5.039,5.0406,5.0423,5.0417,5.0425,5.0456,5.0444,5.0321,5.0303,5.0285,5.0271,5.0459,5.0459,5.0573,5.0574,5.0575]}]]